Regional Weather Roundup
Issued by NWS

Home | Current Version | Previous Version | Graphics & Text | Print | Product List | Glossary On
Versions: 1 2 3 4 5 6 7 8 9 10 11 12 13 14 15 16 17 18 19 20 21 22 23 24 25 26 27
000
ASUS45 KPSR 241310
RWRAZ

ARIZONA HOURLY REGIONAL WEATHER ROUNDUP
NATIONAL WEATHER SERVICE PHOENIX AZ
600 AM MST FRI FEB 24 2017

NOTE: FAIR INDICATES FEW OR NO CLOUDS BELOW 12,000 FEET WITH NO
SIGNIFICANT WEATHER AND/OR OBSTRUCTIONS TO VISIBILITY.

AZZ001>003-036-241400-
NORTHWEST ARIZONA

CITY           SKY/WX    TMP DP  RH WIND       PRES   REMARKS
BULLHEAD CITY  CLEAR     43  25  49 CALM      30.08R
KINGMAN        CLEAR     25   6  44 CALM      30.04R
$$

AZZ004>008-015-016-018-241400-
NORTH CENTRAL ARIZONA

CITY           SKY/WX    TMP DP  RH WIND       PRES   REMARKS
GRAND CANYON   CLEAR     13  10  88 NE6       29.95R WCI   4
WILLIAMS       CLEAR     12   7  79 CALM      29.96R
PRESCOTT       CLEAR     21  13  71 S3        30.00R
FLAGSTAFF      CLEAR     16   6  65 CALM      29.93S
PAYSON         CLEAR     27  19  74 CALM      30.02R
PAGE           CLEAR     34   7  32 W10G18    29.94R WCI  26
$$

AZZ009>014-017-241400-
NORTHEAST ARIZONA

CITY           SKY/WX    TMP DP  RH WIND       PRES   REMARKS
WINSLOW        CLEAR     21  12  68 S6        29.99R WCI  13
SAINT JOHNS    PTCLDY    25  11  55 W6        29.97R WCI  18
WINDOW ROCK    CLEAR     21   7  54 SW6       29.92R WCI  13
SHOW LOW       LGT RAIN  19  14  79 SW6       29.99R WCI  11
$$

AZZ023-241400-
GREATER PHOENIX AREA

CITY           SKY/WX    TMP DP  RH WIND       PRES   REMARKS
PHOENIX        CLEAR     45  30  55 CALM      30.03R
BUCKEYE        CLEAR     34  34 100 N6        30.05S WCI  29
GLENDALE       CLEAR     43  32  65 NW6       30.06
LUKE AFB       CLEAR     41  30  63 CALM      30.04R
DEER VALLEY    CLEAR     38  32  79 CALM      30.03R
SCOTTSDALE     CLEAR     41  32  70 CALM      30.05R
MESA-GATEWAY   CLEAR     37  30  75 E7        30.05R WCI  32
CHANDLER       CLEAR     54  30  40 CALM      30.05
$$

AZZ027-028-241400-
SOUTHWEST MARICOPA COUNTY AND PINAL COUNTY

CITY           SKY/WX    TMP DP  RH WIND       PRES   REMARKS
CASA GRANDE    NOT AVBL
GILA BEND      FAIR     N/A N/A N/A S7          N/A
$$

AZZ503-504-507>509-241400-
SOUTHEAST ARIZONA

CITY           SKY/WX    TMP DP  RH WIND       PRES   REMARKS
TUCSON         CLEAR     36  19  50 SE5       30.06R WCI  32
DAVIS-MONTHAN  CLEAR     33  20  59 SE6       30.05R WCI  28
RYAN FIELD     CLEAR     36  21  55 SE5       30.07  WCI  32
NOGALES        CLEAR     31  21  66 E3        30.03R
SIERRA VISTA   CLEAR     31  18  59 W9        30.03R WCI  22
DOUGLAS        CLEAR     27  17  66 N7        30.04R WCI  19
SAFFORD        CLEAR     36  18  48 W7        30.02R WCI  30
$$

AZZ020-021-025-026-031-241400-
SOUTHWEST ARIZONA

CITY           SKY/WX    TMP DP  RH WIND       PRES   REMARKS
YUMA           CLEAR     46  32  58 N3        30.07R
$$

CAZ031-033-041-043-047-048-061-241400-
SOUTHERN CALIFORNIA

CITY           SKY/WX    TMP DP  RH WIND       PRES   REMARKS
DOWNTOWN L.A.  CLEAR     45  25  45 CALM      30.11S
L.A. AIRPORT   CLEAR     47  24  40 N6        30.12R
SAN DIEGO      PTCLDY    49  36  61 S3        30.13R
BURBANK        CLEAR     40  18  41 N7        30.10F
ONTARIO        CLEAR     38  32  79 CALM      30.09F
RIVERSIDE      CLEAR     38  33  82 E5        30.11S WCI  34
PALM SPRINGS   CLEAR     50  32  50 NW3       30.09R
EL CENTRO NAS  CLEAR     43  28  55 SW5       30.10R
IMPERIAL       CLEAR     45  32  60 CALM      30.08R
BLYTHE         CLEAR     45  27  49 CALM      30.09R
NEEDLES        CLEAR     43  29  57 W5        30.07R
$$

NVZ020-UTZ003-241400-
SOUTHERN NEVADA-UTAH

CITY           SKY/WX    TMP DP  RH WIND       PRES   REMARKS
LAS VEGAS      CLEAR     38  18  44 CALM      30.06R
SALT LAKE CITY LGT SNOW  25  23  92 W8        29.98R FOG     WCI  16
$$

NMZ009-TXZ055-241400-
NEW MEXICO-WEST TEXAS

CITY           SKY/WX    TMP DP  RH WIND       PRES   REMARKS
ALBUQUERQUE    PTCLDY    32  18  56 NW7       29.92R WCI  26
EL PASO        CLEAR     43  10  26 N6        29.95R
$$


........................KEY........................
SKY/WX - SKY CONDITION/WEATHER
TMP    - TEMPERATURE IN FAHRENHEIT
DP     - DEW POINT IN FAHRENHEIT
RH     - RELATIVE HUMIDITY IN PERCENT
WIND   - DIRECTION AND SPEED IN MILES PER HOUR (MPH)
VRB    - VARIABLE WIND DIRECTION
PRES   - MEAN SEA LEVEL PRESSURE IN INCHES OF MERCURY
         F - FALLING PRESSURE   R - RISING PRESSURE
         S - STEADY PRESSURE
VSB    - VISIBILITY IN MILES
HX     - HEAT INDEX IN FAHRENHEIT
WCI    - WIND CHILL INDEX IN FAHRENHEIT
TC     - TEMPERATURE IN CELSIUS WHICH IS ALSO KNOWN AS
         TEMPERATURE IN CENTIGRADE
AFB    - AIR FORCE BASE
         LUKE AFB IS LUKE AIR FORCE BASE
         DAVIS-MONTHAN IS DAVIS-MONTHAN AIR FORCE BASE
NAS    - NAVAL AIR STATION
         EL CENTRO NAS IS EL CENTRO NAVAL AIR STATION
N/A    - NOT AVAILABLE





USA.gov is the U.S. government's official web portal to all federal, state and local government web resources and services.